Location: Unspecified
(0.0000°N, 0.0000°E)
Time: 08:47:50

Envisat - Pass Details

Date: 11 March 2018
Orbit: 764 x 766 km, 98.2° (Epoch: 20 March)

Event Time Altitude Azimuth Distance (km) Brightness Sun altitude
Rises 20:52:29 0° 199° (SSW) 3,230 6.5 -40.5°
Enters shadow 20:53:25 - 203° (SSW) 2,919 6.3 -40.8°
Exits shadow 21:01:22 12° 291° (WNW) 2,181 5.8 -42.8°
Drops below altitude 10° 21:01:52 10° 296° (WNW) 2,295 5.9 -42.9°
Sets 21:04:59 0° 317° (NW) 3,217 6.6 -43.7°
